TimeCDT,TemperatureF,Dew PointF,Humidity,Sea Level PressureIn,VisibilityMPH,Wind Direction,Wind SpeedMPH,Gust SpeedMPH,PrecipitationIn,Events,Conditions,WindDirDegrees,DateUTC
12:54 AM,52.0,34.0,50,29.78,10.0,SSE,9.2,-,N/A,,Clear,160,2013-05-14 05:54:00
1:54 AM,51.1,35.1,54,29.74,10.0,SSE,9.2,-,N/A,,Partly Cloudy,150,2013-05-14 06:54:00
2:54 AM,50.0,36.0,59,29.72,10.0,SSE,8.1,-,N/A,,Clear,150,2013-05-14 07:54:00
3:54 AM,48.0,36.0,63,29.71,10.0,Calm,Calm,-,N/A,,Clear,0,2013-05-14 08:54:00
4:54 AM,44.1,36.0,73,29.71,10.0,ENE,3.5,-,N/A,,Clear,60,2013-05-14 09:54:00
5:54 AM,43.0,36.0,76,29.71,10.0,NE,3.5,-,N/A,,Clear,50,2013-05-14 10:54:00
6:54 AM,48.9,39.9,71,29.72,10.0,Calm,Calm,-,N/A,,Clear,0,2013-05-14 11:54:00
7:54 AM,55.9,42.1,60,29.71,10.0,Calm,Calm,-,N/A,,Clear,0,2013-05-14 12:54:00
8:54 AM,62.1,46.0,56,29.70,10.0,NNW,3.5,-,N/A,,Clear,330,2013-05-14 13:54:00
9:54 AM,68.0,48.9,50,29.71,10.0,NNW,3.5,-,N/A,,Clear,330,2013-05-14 14:54:00
10:54 AM,71.1,48.9,45,29.72,10.0,Calm,Calm,-,N/A,,Clear,0,2013-05-14 15:54:00
11:54 AM,73.9,48.0,40,29.76,10.0,Calm,Calm,-,N/A,,Clear,0,2013-05-14 16:54:00
12:54 PM,73.9,48.9,41,29.78,10.0,NNW,5.8,-,N/A,,Mostly Cloudy,340,2013-05-14 17:54:00
1:54 PM,73.9,52.0,46,29.70,10.0,ESE,5.8,-,0.00,,Partly Cloudy,120,2013-05-14 18:54:00
2:54 PM,78.1,42.1,28,29.63,10.0,ESE,16.1,-,N/A,,Clear,120,2013-05-14 19:54:00
3:54 PM,80.1,45.0,29,29.60,10.0,SE,15.0,-,N/A,,Clear,130,2013-05-14 20:54:00
4:54 PM,82.0,46.0,28,29.58,10.0,SSE,16.1,-,N/A,,Clear,160,2013-05-14 21:54:00
5:54 PM,82.9,46.9,28,29.53,10.0,SSE,17.3,23.0,N/A,,Clear,150,2013-05-14 22:54:00
6:54 PM,82.0,48.9,31,29.49,10.0,SSE,13.8,-,N/A,,Clear,160,2013-05-14 23:54:00
7:54 PM,77.0,51.1,40,29.49,10.0,South,8.1,-,N/A,,Clear,170,2013-05-15 00:54:00
8:54 PM,72.0,51.1,48,29.49,10.0,ESE,6.9,-,N/A,,Clear,120,2013-05-15 01:54:00
9:54 PM,68.0,52.0,56,29.49,10.0,Calm,Calm,-,N/A,,Clear,0,2013-05-15 02:54:00
10:54 PM,73.9,48.9,41,29.50,10.0,WNW,13.8,20.7,N/A,,Clear,290,2013-05-15 03:54:00
11:54 PM,71.1,37.9,30,29.54,10.0,NW,17.3,24.2,N/A,,Clear,310,2013-05-15 04:54:00